Location: Fosso Corella
(43.9167°N, 11.5667°E)
Time: 09:38:32
(UTC+00:00)

SL-16 R/B - Pass Details

Date: 07 June 2020
Orbit: 986 x 1006 km, 99.5° (Epoch: 05 July)

Event Time Altitude Azimuth Distance (km) Brightness Sun altitude
Exits shadow 01:55:28 19° 217° (SW) 2,176 3.7 -13.6°
Maximum altitude 01:58:53 31° 265° (W) 1,674 3.4 -13.2°
Drops below altitude 10° 02:04:17 10° 325° (NW) 2,759 5.1 -12.6°
Sets 02:07:06 0° 336° (NNW) 3,715 5.9 -12.3°
